Date String (YYYY-MM-DD hh:mm:ss) UTC,Instrument flags,Ambient pressure (hPa),Sample flow (lpm),Bypass flow (lpm),Sample temperature (°C),Ambient temperature (°C),ASC tube jacket temperature (°C),LED temperature (°C),Box temperature (°C),Sample RH (%),Span deviation,Mass concentration (μg/m³),Mass concentration (μg/m³),Mass concentration (μg/m³)
DateTimeUTC,F1_M11,P_M11,Q1_M11,Q2_M11,T1_M11,T2_M11,T3_M11,T4_M11,T5_M11,U1_M11,ZSPAN_M11,X2_M11,X0_M11,X1_M11
2022-12-08 14:00:00,,0822.9,5.00,0.00,22.0,20.8,00.0,30.9,23.8,08.5,0000.0,0000.86,0001.92,0000.51
2022-12-08 14:01:00,,0823.0,5.00,0.00,22.0,20.5,00.0,30.9,23.6,08.5,0000.0,0000.84,0001.96,0000.51
2022-12-08 14:02:00,,0823.0,5.02,0.00,21.9,20.4,00.0,30.9,23.6,08.5,0000.0,0000.83,0003.02,0000.52
2022-12-08 14:03:00,,0823.1,5.01,0.00,21.9,20.3,00.0,30.9,23.5,08.6,0000.0,0000.82,0003.02,0000.51
2022-12-08 14:04:00,,0823.1,5.00,0.00,21.9,20.2,00.0,30.9,23.5,08.6,0000.0,0000.82,0003.00,0000.51
2022-12-08 14:05:00,,0823.1,4.99,0.00,21.8,20.2,00.0,30.9,23.5,08.7,0000.0,0000.83,0003.03,0000.52
2022-12-08 14:06:00,,0823.0,4.99,0.00,21.8,20.1,00.0,30.8,23.4,08.6,0000.0,0000.82,0003.00,0000.52
2022-12-08 14:07:00,,0823.0,4.99,0.00,21.7,20.0,00.0,30.8,23.4,08.6,0000.0,0000.81,0002.91,0000.51
2022-12-08 14:08:00,,0823.1,4.99,0.00,21.7,20.0,00.0,30.8,23.4,08.6,0000.0,0000.79,0002.82,0000.51
2022-12-08 14:09:00,,0823.1,5.00,0.00,21.7,20.0,00.0,30.8,23.4,08.6,0000.0,0000.78,0002.59,0000.52
2022-12-08 14:10:00,,0823.0,5.00,0.00,21.7,20.1,00.0,30.8,23.4,08.6,0000.0,0000.77,0002.41,0000.52
2022-12-08 14:11:00,,0823.1,5.01,0.00,21.7,20.2,00.0,30.7,23.4,08.4,0000.0,0000.75,0002.50,0000.51
2022-12-08 14:12:00,,0823.1,5.01,0.00,21.8,21.2,00.0,30.7,23.6,08.5,0000.0,0000.75,0002.57,0000.51
2022-12-08 14:13:00,,0823.2,5.01,0.00,21.9,22.2,00.0,30.7,23.9,08.5,0000.0,0000.75,0001.61,0000.51
2022-12-08 14:14:00,,0823.0,4.99,0.00,22.0,22.1,00.0,30.7,24.0,08.6,0000.0,0000.75,0001.46,0000.51
2022-12-08 14:15:00,,0823.1,5.00,0.00,22.0,21.8,00.0,30.8,23.9,08.5,0000.0,0000.76,0001.48,0000.51
2022-12-08 14:16:00,,0823.2,5.01,0.00,22.0,21.5,00.0,30.8,23.9,08.6,0000.0,0000.76,0001.50,0000.51
2022-12-08 14:17:00,,0823.2,5.00,0.00,22.0,21.3,00.0,30.8,23.8,08.6,0000.0,0000.78,0001.58,0000.52
2022-12-08 14:18:00,,0823.3,5.00,0.00,22.0,21.1,00.0,30.8,23.8,08.4,0000.0,0000.79,0001.79,0000.52
2022-12-08 14:19:00,,0823.2,5.00,0.00,22.0,21.0,00.0,30.8,23.8,08.4,0000.0,0000.80,0002.15,0000.53
2022-12-08 14:20:00,,0823.1,4.99,0.00,22.0,20.9,00.0,30.9,23.8,08.4,0000.0,0000.82,0002.62,0000.54
2022-12-08 14:21:00,,0823.2,4.99,0.00,22.0,20.8,00.0,30.9,23.7,08.4,0000.0,0000.82,0002.59,0000.54
2022-12-08 14:22:00,,0823.2,5.00,0.00,22.0,20.7,00.0,30.9,23.7,08.6,0000.0,0000.80,0002.48,0000.56
2022-12-08 14:23:00,,0823.3,4.99,0.00,21.9,20.6,00.0,30.9,23.7,08.8,0000.0,0000.81,0002.41,0000.57
2022-12-08 14:24:00,,0823.1,5.00,0.00,21.9,20.6,00.0,30.9,23.6,08.8,0000.0,0000.80,0002.35,0000.58
2022-12-08 14:25:00,,0823.0,5.00,0.00,21.9,20.5,00.0,30.9,23.7,08.9,0000.0,0000.83,0002.42,0000.59
2022-12-08 14:26:00,,0823.1,5.01,0.00,21.9,20.5,00.0,30.8,23.7,09.0,0000.0,0000.87,0002.49,0000.60
2022-12-08 14:27:00,,0823.1,5.00,0.00,21.9,20.5,00.0,30.8,23.6,09.0,0000.0,0000.87,0002.48,0000.62
2022-12-08 14:28:00,,0823.1,4.99,0.00,21.9,20.4,00.0,30.8,23.6,09.0,0000.0,0000.88,0002.48,0000.62
2022-12-08 14:29:00,,0823.1,5.00,0.00,21.9,20.4,00.0,30.8,23.6,09.3,0000.0,0000.89,0003.08,0000.63
2022-12-08 14:30:00,,0823.1,5.01,0.00,21.9,20.3,00.0,30.8,23.6,09.5,0000.0,0000.91,0003.06,0000.64
2022-12-08 14:31:00,,0823.2,5.01,0.00,21.8,20.3,00.0,30.8,23.5,09.4,0000.0,0000.90,0002.66,0000.64
2022-12-08 14:32:00,,0823.2,5.01,0.00,21.8,20.2,00.0,30.8,23.5,09.4,0000.0,0000.94,0002.77,0000.66
2022-12-08 14:33:00,,0823.4,5.01,0.00,21.8,20.2,00.0,30.8,23.5,09.5,0000.0,0000.97,0002.90,0000.66
2022-12-08 14:34:00,,0823.4,5.00,0.00,21.8,20.2,00.0,30.8,23.4,09.6,0000.0,0000.94,0002.85,0000.65
2022-12-08 14:35:00,,0823.3,5.00,0.00,21.8,20.3,00.0,30.7,23.5,09.7,0000.0,0000.96,0002.83,0000.66
2022-12-08 14:36:00,,0823.3,4.98,0.00,21.8,21.4,00.0,30.7,23.7,09.8,0000.0,0000.94,0002.78,0000.65
2022-12-08 14:37:00,,0823.2,5.02,0.00,22.0,22.3,00.0,30.7,24.0,09.9,0000.0,0000.91,0002.71,0000.63
2022-12-08 14:38:00,,0823.2,5.00,0.00,22.0,22.1,00.0,30.8,24.0,09.8,0000.0,0000.89,0004.02,0000.62
2022-12-08 14:39:00,,0823.4,4.98,0.00,22.0,21.7,00.0,30.8,23.9,09.8,0000.0,0000.90,0004.31,0000.62
2022-12-08 14:40:00,,0823.4,5.00,0.00,22.0,21.4,00.0,30.8,23.8,09.8,0000.0,0000.90,0003.47,0000.61
2022-12-08 14:41:00,,0823.3,5.00,0.00,22.0,21.1,00.0,30.8,23.8,10.0,0000.0,0000.86,0003.15,0000.59
2022-12-08 14:42:00,,0823.3,4.99,0.00,22.0,21.0,00.0,30.8,23.8,10.1,0000.0,0000.85,0003.22,0000.58
2022-12-08 14:43:00,,0823.4,5.00,0.00,22.0,20.9,00.0,30.9,23.7,10.1,0000.0,0000.81,0003.15,0000.55
2022-12-08 14:44:00,,0823.4,5.00,0.00,22.0,20.7,00.0,30.9,23.7,10.2,0000.0,0000.79,0003.09,0000.54
2022-12-08 14:45:00,,0823.6,5.00,0.00,22.0,20.6,00.0,30.9,23.7,10.1,0000.0,0000.80,0003.19,0000.53
2022-12-08 14:46:00,,0823.6,5.00,0.00,21.9,20.5,00.0,30.9,23.7,10.2,0000.0,0000.84,0003.27,0000.52
2022-12-08 14:47:00,,0823.6,5.00,0.00,21.9,20.5,00.0,30.8,23.6,10.3,0000.0,0000.85,0003.29,0000.52
2022-12-08 14:48:00,,0823.4,5.00,0.00,21.9,20.5,00.0,30.8,23.6,10.4,0000.0,0000.88,0003.38,0000.51
2022-12-08 14:49:00,,0823.4,5.01,0.00,21.9,20.4,00.0,30.8,23.6,10.4,0000.0,0000.88,0002.36,0000.51
2022-12-08 14:50:00,,0823.5,4.99,0.00,21.9,20.4,00.0,30.8,23.5,10.4,0000.0,0000.90,0001.91,0000.51
2022-12-08 14:51:00,,0823.6,4.99,0.00,21.9,20.4,00.0,30.8,23.5,10.5,0000.0,0000.92,0001.96,0000.50
2022-12-08 14:52:00,,0823.7,4.99,0.00,21.8,20.5,00.0,30.8,23.5,10.3,0000.0,0000.95,0002.09,0000.51
2022-12-08 14:53:00,,0823.7,5.01,0.00,21.8,20.5,00.0,30.8,23.5,10.1,0000.0,0000.96,0002.09,0000.50
2022-12-08 14:54:00,,0823.7,5.01,0.00,21.8,20.5,00.0,30.8,23.5,10.0,0000.0,0000.96,0002.09,0000.51
2022-12-08 14:55:00,,0823.7,5.00,0.00,21.8,20.5,00.0,30.8,23.6,10.0,0000.0,0000.97,0002.13,0000.51
2022-12-08 14:56:00,,0823.7,4.99,0.00,21.8,20.5,00.0,30.8,23.6,10.0,0000.0,0000.96,0002.04,0000.51
2022-12-08 14:57:00,,0823.7,5.00,0.00,21.8,20.5,00.0,30.8,23.6,10.0,0000.0,0000.92,0002.01,0000.50
2022-12-08 14:58:00,,0823.7,5.00,0.00,21.8,20.5,00.0,30.8,23.6,09.9,0000.0,0000.95,0002.15,0000.49
2022-12-08 14:59:00,,0823.7,5.00,0.00,21.8,20.6,00.0,30.8,23.6,09.9,0000.0,0001.04,0002.44,0000.50
